This demonstration page uses our WeatherBlox Daily Observations layout. Learn more.

Left ArrowRight Arrow

39.12711, -84.51439

Hourly Observations for May 8, 2016

Temp ( °F °C ) Dew Point ( °F °C ) Humidity (%) Winds ( mph kmh ) Pressure ( in mb ) Visibility ( mi km ) Precip ( " mm )
3:53 am 03:53 Clear 48 8.9 45 7.2 89 89 Calm 29.87 1012 10 16 0.00 0.00
4:53 am 04:53 Clear 51 10.6 38 3.3 61 61 Calm 29.88 1012 10 16 0.00 0.00
5:53 am 05:53 Clear 46 7.8 45 7.2 96 96 Calm 29.89 1012 10 16 0.00 0.00
6:42 am 06:42 Sunny with Fog 43 6.1 43 6.1 100 100 Calm 29.94 1014 1 1 0.00 0.00
6:49 am 06:49 Sunny 43 6 43 6 100 100 Calm 29.94 1014 10 16 0.00 0.00
7:53 am 07:53 Partly Cloudy 48 8.9 46 7.8 93 93 Calm 29.96 1015 10 16 0.00 0.00
8:53 am 08:53 Mostly Sunny 53 11.7 46 7.8 77 77 Calm 29.97 1015 10 16 0.00 0.00
9:53 am 09:53 Partly Cloudy 55 12.8 44 6.7 67 67 Calm 29.99 1016 10 16 0.00 0.00
10:53 am 10:53 Partly Cloudy 57 13.9 44 6.7 62 62 Calm 29.99 1016 10 16 0.00 0.00
11:53 am 11:53 Mostly Cloudy 57 13.9 46 7.8 67 67 SSW 6 9 30.00 1016 10 16 0.00 0.00
12:53 pm 12:53 Mostly Cloudy with Light Rain 56 13.3 49 9.4 77 77 SW 6 9 30.03 1017 9 14 0.01 0.25
2:24 pm 14:24 Cloudy with Rain 50 10 48 9 94 94 VRB 6 9 30.06 1018 4 6 0.00 0.00
2:53 pm 14:53 Cloudy 51 10.6 49 9.4 92 92 SSW 6 9 30.03 1017 8 13 0.04 1.02
3:53 pm 15:53 Cloudy 53 11.7 50 10 89 89 SSE 6 9 30.00 1016 10 16 0.00 0.00
4:53 pm 16:53 Mostly Cloudy 55 12.8 50 10 83 83 SSW 6 9 29.98 1015 10 16 0.00 0.00
5:53 pm 17:53 Cloudy 56 13.3 50 10 81 81 SSE 5 7 29.98 1015 10 16 0.00 0.00
6:53 pm 18:53 Cloudy 57 13.9 50 10 78 78 SSW 3 6 29.99 1016 10 16 0.00 0.00
7:53 pm 19:53 Mostly Cloudy 56 13.3 52 11.1 87 87 SSW 3 6 29.99 1016 10 16 0.00 0.00
8:53 pm 20:53 Cloudy 56 13.3 53 11.7 90 90 NE 5 7 30.00 1016 10 16 0.00 0.00
9:53 pm 21:53 Mostly Cloudy 54 12.2 52 11.1 93 93 Calm 30.00 1016 10 16 0.00 0.00
10:53 pm 22:53 Mostly Clear 52 11.1 52 11.1 100 100 Calm 30.01 1016 10 16 0.00 0.00
11:53 pm 23:53 Mostly Clear 50 10 50 10 100 100 S 3 6 30.01 1016 8 13 0.00 0.00

Powered by AerisWeather